DELTA 1 DEB

基本信息
目录编号:
21282
目录名称:
DELTA 1 DEB
国际标识:
1975-052T
轨道中心:
EARTH
物体状态:
在轨
发射日期:
1975-06-12 UTC
轨道信息
数据来源: 国际轨道数据
星历时间: 2026-09-11T14:18:37+0800
半长轴: 7544.327km
偏心率: 0.010084
轨道倾角: 99.823°
近地点辐角: 82.351°
升交点赤经: 183.262°
平近点角: 72.578°
近地点: 1090.113km
远地点: 1242.267km
周期: 108.690分钟
每日圈数: 13.248664
详细信息
发射场:
AFWTR
轨道高度:
LEO
数据来源:
AOE Integration Group
参考系:
TEME
时间系统:
UTC
历元类型:
SGP4
2D轨道图
3D轨道图
轨道高度分析图
轨道倾角分析图
轨道综合分析图
查看轨道综合分析图